When you browse on this site, cookies collect data to enhance your experience and personalize the content and advertising you see.
Visit our Privacy Policy to learn more. By continuing to use the site, you agree to this use of cookies and data.
  • Em Portugal
  • Lista de países
  • Para 7 dias
  • Temperatura da água
  • Mapas de satélite
  • Mapa do tempo
  • Widgets de tempo
  • user-avatar
    Iniciar Sessão

    Previsão horária em Niedzwiedzica

    Hoje, 21 Fevereiro, Quinta-feira

    Tempo Temperatura Precipitação Vento Pressão Humidade
    00:00 +1°C° 0 mm 2 m/s 722 mmHg 86%
    01:00 +1°C° 0 mm 2 m/s 722 mmHg 86%
    02:00 +1°C° 0 mm 2 m/s 722 mmHg 86%
    03:00 +1°C° 0 mm 2 m/s 722 mmHg 87%
    04:00 -1°C° 0 mm 2 m/s 722 mmHg 88%
    05:00 -1°C° 0 mm 2 m/s 722 mmHg 89%
    06:00 -1°C° 0 mm 2 m/s 722 mmHg 89%
    07:00 0°C° 0 mm 3 m/s 722 mmHg 90%
    08:00 +1°C° 0 mm 3 m/s 722 mmHg 86%
    09:00 +2°C° 0 mm 3 m/s 722 mmHg 82%
    10:00 +4°C° 0 mm 3 m/s 722 mmHg 78%
    11:00 +4°C° 0.2 mm 3 m/s 722 mmHg 78%
    12:00 +4°C° 0.2 mm 4 m/s 722 mmHg 79%
    13:00 +4°C° 0 mm 4 m/s 722 mmHg 78%
    14:00 +4°C° 0.9 mm 4 m/s 722 mmHg 81%
    15:00 +3°C° 0.9 mm 4 m/s 721 mmHg 83%
    16:00 +3°C° 0.9 mm 4 m/s 721 mmHg 85%
    17:00 +3°C° 0.3 mm 4 m/s 721 mmHg 86%
    18:00 +3°C° 0.3 mm 4 m/s 721 mmHg 87%
    19:00 +3°C° 0.3 mm 4 m/s 721 mmHg 88%
    20:00 +3°C° 0.1 mm 4 m/s 721 mmHg 89%
    21:00 +3°C° 0.1 mm 4 m/s 721 mmHg 89%
    22:00 +3°C° 0.1 mm 4 m/s 720 mmHg 90%
    23:00 +3°C° 0.6 mm 4 m/s 720 mmHg 92%

    Amanhã, 22 Fevereiro, Sexta-feira

    Tempo Temperatura Precipitação Vento Pressão Humidade
    00:00 +3°C° 0.6 mm 4 m/s 720 mmHg 93%
    01:00 +3°C° 0.6 mm 4 m/s 720 mmHg 94%
    02:00 +3°C° 0.9 mm 4 m/s 720 mmHg 95%
    03:00 +3°C° 0.9 mm 4 m/s 720 mmHg 96%
    04:00 +3°C° 0.9 mm 4 m/s 721 mmHg 96%
    05:00 +1°C° 0.4 mm 5 m/s 722 mmHg 95%
    06:00 -1°C° 0.4 mm 6 m/s 722 mmHg 94%
    07:00 -2°C° 0.4 mm 6 m/s 723 mmHg 92%
    08:00 -3°C° 0.1 mm 6 m/s 724 mmHg 89%
    09:00 -4°C° 0.1 mm 6 m/s 725 mmHg 86%
    10:00 -4°C° 0.1 mm 6 m/s 726 mmHg 83%
    11:00 -4°C° 0 mm 6 m/s 727 mmHg 75%
    12:00 -4°C° 0 mm 6 m/s 728 mmHg 67%
    13:00 -2°C° 0 mm 5 m/s 729 mmHg 59%
    14:00 -2°C° 0 mm 5 m/s 729 mmHg 58%
    15:00 -4°C° 0 mm 5 m/s 730 mmHg 56%
    16:00 -4°C° 0 mm 5 m/s 730 mmHg 55%
    17:00 -4°C° 0 mm 4 m/s 731 mmHg 57%
    18:00 -5°C° 0 mm 4 m/s 731 mmHg 60%
    19:00 -6°C° 0 mm 3 m/s 732 mmHg 62%
    20:00 -6°C° 0 mm 3 m/s 732 mmHg 62%
    21:00 -6°C° 0 mm 3 m/s 733 mmHg 62%
    22:00 -6°C° 0 mm 2 m/s 733 mmHg 62%
    23:00 -6°C° 0 mm 2 m/s 734 mmHg 61%

    Depois de amanhã, 23 Fevereiro, Sábado

    Tempo Temperatura Precipitação Vento Pressão Humidade
    00:00 -6°C° 0 mm 2 m/s 734 mmHg 60%
    01:00 -6°C° 0 mm 2 m/s 734 mmHg 59%
    02:00 -6°C° 0 mm 2 m/s 734 mmHg 59%
    03:00 -4°C° 0 mm 1 m/s 734 mmHg 59%
    04:00 -4°C° 0 mm 1 m/s 733 mmHg 58%
    05:00 -6°C° 0 mm 1 m/s 734 mmHg 58%
    06:00 -6°C° 0 mm 1 m/s 734 mmHg 57%
    07:00 -6°C° 0 mm 0 m/s 734 mmHg 57%
    08:00 -4°C° 0 mm 1 m/s 734 mmHg 50%
    09:00 -3°C° 0 mm 1 m/s 734 mmHg 43%
    10:00 -4°C° 0 mm 2 m/s 735 mmHg 35%
    11:00 -3°C° 0 mm 2 m/s 735 mmHg 33%
    12:00 -2°C° 0 mm 2 m/s 734 mmHg 30%
    13:00 -1°C° 0 mm 2 m/s 734 mmHg 27%
    14:00 -1°C° 0 mm 2 m/s 734 mmHg 29%
    15:00 +1°C° 0 mm 1 m/s 734 mmHg 30%
    16:00 +1°C° 0 mm 1 m/s 733 mmHg 31%
    17:00 0°C° 0 mm 1 m/s 733 mmHg 35%
    18:00 -1°C° 0 mm 1 m/s 733 mmHg 39%
    19:00 -2°C° 0 mm 1 m/s 733 mmHg 43%
    20:00 -2°C° 0 mm 1 m/s 733 mmHg 43%
    21:00 -2°C° 0 mm 1 m/s 733 mmHg 42%
    22:00 -2°C° 0 mm 1 m/s 733 mmHg 41%
    23:00 -2°C° 0 mm 1 m/s 733 mmHg 39%

    24 Fevereiro, Domingo

    Tempo Temperatura Precipitação Vento Pressão Humidade
    00:00 -2°C° 0 mm 1 m/s 733 mmHg 38%
    01:00 -2°C° 0 mm 1 m/s 732 mmHg 36%
    02:00 -2°C° 0 mm 1 m/s 732 mmHg 35%
    03:00 -2°C° 0 mm 1 m/s 732 mmHg 34%
    04:00 -1°C° 0 mm 1 m/s 732 mmHg 33%
    05:00 -1°C° 0 mm 1 m/s 732 mmHg 33%
    06:00 -1°C° 0 mm 1 m/s 732 mmHg 33%
    07:00 -1°C° 0 mm 1 m/s 732 mmHg 33%
    08:00 0°C° 0 mm 1 m/s 732 mmHg 32%
    09:00 +2°C° 0 mm 1 m/s 732 mmHg 30%
    10:00 +4°C° 0 mm 1 m/s 733 mmHg 28%
    11:00 +5°C° 0 mm 1 m/s 732 mmHg 31%
    12:00 +5°C° 0 mm 2 m/s 732 mmHg 33%
    13:00 +6°C° 0 mm 2 m/s 732 mmHg 36%
    14:00 +5°C° 0 mm 2 m/s 732 mmHg 42%
    15:00 +5°C° 0 mm 2 m/s 732 mmHg 48%
    16:00 +6°C° 0 mm 1 m/s 731 mmHg 53%
    17:00 +4°C° 0 mm 1 m/s 731 mmHg 57%
    18:00 +3°C° 0 mm 1 m/s 731 mmHg 60%
    19:00 +1°C° 0 mm 2 m/s 731 mmHg 64%
    20:00 -1°C° 0 mm 2 m/s 731 mmHg 64%
    21:00 -1°C° 0 mm 2 m/s 731 mmHg 65%
    22:00 -1°C° 0 mm 2 m/s 732 mmHg 65%
    23:00 -1°C° 0 mm 2 m/s 732 mmHg 66%

    25 Fevereiro, Segunda-feira

    Tempo Temperatura Precipitação Vento Pressão Humidade
    00:00 +1°C° 0 mm 1 m/s 732 mmHg 66%
    01:00 +1°C° 0 mm 1 m/s 732 mmHg 66%
    02:00 +1°C° 0 mm 1 m/s 732 mmHg 67%
    03:00 +1°C° 0 mm 1 m/s 732 mmHg 67%
    04:00 +1°C° 0 mm 1 m/s 732 mmHg 68%
    05:00 +1°C° 0 mm 1 m/s 732 mmHg 69%
    06:00 +1°C° 0 mm 1 m/s 732 mmHg 70%
    07:00 +1°C° 0 mm 1 m/s 732 mmHg 71%
    08:00 +3°C° 0 mm 1 m/s 733 mmHg 67%
    09:00 +5°C° 0 mm 1 m/s 733 mmHg 63%
    10:00 +6°C° 0 mm 2 m/s 733 mmHg 59%
    11:00 +7°C° 0 mm 2 m/s 733 mmHg 57%
    12:00 +8°C° 0 mm 2 m/s 733 mmHg 55%
    13:00 +9°C° 0 mm 2 m/s 732 mmHg 54%
    14:00 +9°C° 0 mm 2 m/s 732 mmHg 58%
    15:00 +8°C° 0 mm 2 m/s 732 mmHg 62%
    16:00 +8°C° 0 mm 2 m/s 732 mmHg 66%
    17:00 +6°C° 0 mm 2 m/s 731 mmHg 69%
    18:00 +5°C° 0 mm 2 m/s 731 mmHg 73%
    19:00 +4°C° 0 mm 1 m/s 731 mmHg 77%
    20:00 +4°C° 0 mm 1 m/s 731 mmHg 76%
    21:00 +4°C° 0 mm 1 m/s 731 mmHg 76%
    22:00 +4°C° 0 mm 1 m/s 730 mmHg 75%
    23:00 +4°C° 0 mm 1 m/s 730 mmHg 76%

    26 Fevereiro, Terça-feira

    Tempo Temperatura Precipitação Vento Pressão Humidade
    00:00 +4°C° 0 mm 1 m/s 730 mmHg 76%
    01:00 +3°C° 0 mm 1 m/s 730 mmHg 76%
    02:00 +2°C° 0 mm 2 m/s 729 mmHg 77%
    03:00 +2°C° 0 mm 2 m/s 729 mmHg 77%
    04:00 +2°C° 0 mm 2 m/s 728 mmHg 78%
    05:00 +2°C° 0 mm 2 m/s 728 mmHg 79%
    06:00 +2°C° 0 mm 2 m/s 728 mmHg 80%
    07:00 +2°C° 0 mm 2 m/s 728 mmHg 81%
    08:00 +3°C° 0 mm 3 m/s 728 mmHg 75%
    09:00 +5°C° 0 mm 3 m/s 728 mmHg 69%
    10:00 +7°C° 0 mm 4 m/s 728 mmHg 63%
    11:00 +8°C° 0 mm 4 m/s 727 mmHg 57%
    12:00 +9°C° 0 mm 5 m/s 727 mmHg 51%
    13:00 +10°C° 0 mm 5 m/s 727 mmHg 46%
    14:00 +10°C° 0 mm 5 m/s 726 mmHg 51%
    15:00 +9°C° 0 mm 5 m/s 726 mmHg 57%
    16:00 +9°C° 0 mm 5 m/s 725 mmHg 63%
    17:00 +8°C° 0 mm 5 m/s 725 mmHg 67%
    18:00 +6°C° 0 mm 4 m/s 725 mmHg 72%
    19:00 +5°C° 0 mm 4 m/s 725 mmHg 77%
    20:00 +5°C° 0 mm 4 m/s 725 mmHg 79%
    21:00 +5°C° 0 mm 4 m/s 725 mmHg 80%
    22:00 +5°C° 0 mm 4 m/s 725 mmHg 82%
    23:00 +4°C° 0 mm 4 m/s 725 mmHg 86%
    Mostrar mais